Location: Unspecified
(48.3115°N, 0.0000°E)
Time: 13:50:38
(UTC+00:00)

Step 2 - Visible Passes

Search period start: 04 April 2026 00:00
Search period end: 14 April 2026 00:00
Orbit: 539 x 655 km, 81.9° (Epoch: 28 March)

Date Brightness Start Highest point End Pass type
(mag) Time Alt. Az. Time Alt. Az. Time Alt. Az.
4 Apr 7.9 03:18:39 10° SE 03:21:59 22° E 03:25:15 10° NE visible
4 Apr 6.0 04:55:07 10° SW 04:59:14 39° WNW 05:03:14 10° N visible
5 Apr 7.2 03:28:23 10° SSE 03:32:15 32° E 03:36:01 10° NNE visible
6 Apr 6.4 03:38:21 10° S 03:42:32 49° E 03:46:36 10° NNE visible
7 Apr 5.6 03:48:44 11° S 03:52:51 77° E 03:57:03 10° NNE visible
8 Apr 8.3 02:24:30 10° ESE 02:26:17 12° E 02:28:04 10° ENE visible
8 Apr 5.4 03:59:32 14° SSW 04:03:13 69° WNW 04:07:23 10° N visible
9 Apr 7.9 02:33:32 10° SE 02:36:25 19° E 02:39:21 10° NE visible
9 Apr 5.8 04:10:14 14° SW 04:13:36 44° WNW 04:17:35 10° N visible
10 Apr 7.3 02:44:11 16° SE 02:46:37 27° E 02:50:09 10° NNE visible
10 Apr 6.4 04:20:53 13° SW 04:24:00 29° WNW 04:27:40 10° N visible
11 Apr 6.5 02:54:46 24° SSE 02:56:50 42° E 03:00:43 10° NNE visible
11 Apr 6.9 04:31:28 11° WSW 04:34:28 20° WNW 04:37:34 10° NNW visible
12 Apr 5.7 03:05:18 32° S 03:07:04 66° E 03:11:09 10° NNE visible
12 Apr 7.3 04:42:48 10° W 04:44:58 14° WNW 04:47:07 10° NNW visible
13 Apr 8.3 01:39:50 10° E 01:40:31 10° E 01:41:11 10° ENE visible
13 Apr 5.3 03:15:47 37° SSW 03:17:21 80° WNW 03:21:27 10° N visible
